This is the latest recevied weather packets stored in our database for station/object KK4JIV-13. If no packets are shown the sender has not sent any weather packets the latest 1 day(s).
| Time | Temp. | Humidity | Pressure | Rain* | Wind** | Luminosity | Snow |
|---|---|---|---|---|---|---|---|
| 1777992138 | 26.11° C | 64% | 1016.1 hPa | 0 mm | 0.89 m/s, 230° | 573 W/m² | - |
| 1777991834 | 26.11° C | 64% | 1016.2 hPa | 0 mm | 2.68 m/s, 141° | 606 W/m² | - |
| 1777991532 | 26.11° C | 65% | 1016 hPa | 0 mm | 0.45 m/s, 116° | 599 W/m² | - |
| 1777991228 | 26.11° C | 66% | 1016.1 hPa | 0 mm | 3.13 m/s, 173° | 570 W/m² | - |
| 1777990926 | 25.56° C | 66% | 1016.1 hPa | 0 mm | 0 m/s | 554 W/m² | - |
| 1777990624 | 25.56° C | 65% | 1016 hPa | 0 mm | 2.24 m/s, 81° | 535 W/m² | - |
| 1777990320 | 25.56° C | 66% | 1016.1 hPa | 0 mm | 1.34 m/s, 123° | 497 W/m² | - |
| 1777990016 | 25° C | 67% | 1016.1 hPa | 0 mm | 0.89 m/s, 36° | 500 W/m² | - |
| 1777989714 | 25.56° C | 65% | 1016.2 hPa | 0 mm | 1.34 m/s, 135° | 459 W/m² | - |
| 1777989410 | 25° C | 67% | 1015.9 hPa | 0 mm | 1.34 m/s, 143° | 472 W/m² | - |
| 1777989106 | 25° C | 68% | 1016.2 hPa | 0 mm | 1.79 m/s, 131° | 461 W/m² | - |
| 1777988802 | 24.44° C | 68% | 1016.2 hPa | 0 mm | 1.34 m/s, 117° | 445 W/m² | - |
| 1777988500 | 24.44° C | 69% | 1016.2 hPa | 0 mm | 0.89 m/s, 137° | 414 W/m² | - |
| 1777988197 | 24.44° C | 68% | 1016.1 hPa | 0 mm | 0.45 m/s, 174° | 404 W/m² | - |
| 1777987893 | 23.89° C | 68% | 1016 hPa | 0 mm | 1.79 m/s, 133° | 391 W/m² | - |
| 1777987589 | 23.89° C | 68% | 1016 hPa | 0 mm | 0.89 m/s, 114° | 377 W/m² | - |
| 1777987287 | 23.89° C | 70% | 1015.8 hPa | 0 mm | 0 m/s | 362 W/m² | - |
| 1777986983 | 23.89° C | 68% | 1015.9 hPa | 0 mm | 0.45 m/s, 94° | 327 W/m² | - |
| 1777986681 | 22.78° C | 70% | 1015.8 hPa | 0 mm | 0.89 m/s, 87° | 334 W/m² | - |
| 1777986379 | 22.78° C | 71% | 1015.7 hPa | 0 mm | 1.79 m/s, 89° | 282 W/m² | - |
| 1777986078 | 22.22° C | 72% | 1015.7 hPa | 0 mm | 0.89 m/s, 96° | 299 W/m² | - |
| 1777985773 | 21.67° C | 73% | 1015.8 hPa | 0 mm | 1.79 m/s, 84° | 261 W/m² | - |
| 1777985471 | 21.67° C | 73% | 1015.8 hPa | 0 mm | 1.34 m/s, 107° | 269 W/m² | - |
| 1777985167 | 21.11° C | 75% | 1015.7 hPa | 0 mm | 0.45 m/s, 338° | 241 W/m² | - |
| 1777984863 | 21.67° C | 75% | 1015.8 hPa | 0 mm | 1.34 m/s, 90° | 228 W/m² | - |
* Rain latest hour (hover to see other rain measurements)
** Current wind speed in m/s (hover to see current wind gust speed)